Location: Bermeries
(50.2863°N, 3.7551°E)
Time: 03:41:32
(UTC+00:00)

Sich 1 Rocket - Pass Details

Date: 23 May 2024
Orbit: 613 x 650 km, 82.5° (Epoch: 17 June)

Event Time Altitude Azimuth Distance (km) Brightness Sun altitude
Rises 02:31:02 0° 350° (N) 2,963 7.7 -9.8°
Reaches altitude 10° 02:33:19 10° 352° (N) 2,043 6.9 -9.6°
Maximum altitude 02:37:51 77° 79° (E) 657 3.8 -9.1°
Drops below altitude 10° 02:42:18 10° 166° (SSE) 2,003 5.9 -8.7°
Sets 02:44:31 0° 168° (SSE) 2,900 6.7 -8.4°
